Weather History for Chesapeake, VA

Change the Weather History Date:

Tuesday, February 12, 2013

  Actual Average (KORF) Record (KORF)
Temperature  
Mean Temperature 53 °F 42 °F  
Max Temperature 60 °F 50 °F 78 °F (1965)
Min Temperature 46 °F 34 °F 14 °F (1899)
Degree Days  
Heating Degree Days 12 23  
Month to date heating degree days 283  
Since 1 July heating degree days 2225  
Cooling Degree Days 0 0  
Month to date cooling degree days 0  
Year to date cooling degree days 0  
Growing Degree Days 3 (Base 50)    
Moisture  
Dew Point 37 °F    
Average Humidity 54    
Maximum Humidity 87    
Minimum Humidity 27    
Precipitation  
Precipitation 0.00 in 0.10 in 1.44 in (1906)
Month to date precipitation 1.30  
Year to date precipitation 4.70  
Snow  
Snow 0.00 in 0.10 in 7.90 in (1899)
Month to date snowfall 1.0  
Since 1 July snowfall 4.6  
Snow Depth -    
Sea Level Pressure  
Sea Level Pressure 29.97 in    
Wind  
Wind Speed 8 mph (West)    
Max Wind Speed 14 mph    
Max Gust Speed 21 mph    
Visibility 10 miles    
Events      
T = Trace of Precipitation, MM = Missing Value Source: NWS Daily Summary

Daily Weather History Graph

Daily Weather History Graph

Search for Another Location

Airport:

Trip Planner

Search our weather history database for the weather conditions in past years. The results will help you decide how hot, cold, wet, or windy it might be!

Date:

Astronomy

Feb. 12, 2013 Rise Set
Actual Time 6:56 AM EST 5:43 PM EST
Civil Twilight 6:29 AM EST 6:09 PM EST
Nautical Twilight 5:59 AM EST 6:40 PM EST
Astronomical Twilight 5:29 AM EST 7:10 PM EST
Moon 7:58 AM EST (2/12) 8:35 PM EST (2/12)
Length of Visible Light 11h 39m
Length of Day
10h 46m
Waxing Crescent, 7% of the Moon is Illuminated
Feb 12
Waxing Crescent
Feb 17
First Quarter
Feb 25
Full
Mar 4
Last Quarter
Mar 11
New

Hourly Weather History & Observations

Time (EST) Temp. Windchill Dew Point Humidity Pressure Visibility Wind Dir Wind Speed Gust Speed Precip Events Conditions
12:15 AM 60.8 °F - 55.4 °F 82% 29.86 in 10.0 mi WSW 11.5 mph 16.1 mph N/A   Clear
12:35 AM 60.8 °F - 55.4 °F 82% 29.86 in 10.0 mi WSW 12.7 mph 19.6 mph N/A   Clear
12:55 AM 60.8 °F - 53.6 °F 77% 29.87 in 10.0 mi WSW 11.5 mph 17.3 mph N/A   Clear
1:15 AM 60.8 °F - 53.6 °F 77% 29.87 in 10.0 mi WSW 10.4 mph 17.3 mph N/A   Clear
1:35 AM 59.0 °F - 53.6 °F 82% 29.87 in 10.0 mi WSW 10.4 mph - N/A   Clear
1:55 AM 59.0 °F - 51.8 °F 77% 29.87 in 10.0 mi West 9.2 mph - N/A   Clear
2:15 AM 59.0 °F - 50.0 °F 72% 29.88 in 10.0 mi West 11.5 mph 17.3 mph N/A   Clear
2:35 AM 57.2 °F - 48.2 °F 72% 29.89 in 10.0 mi West 12.7 mph 19.6 mph N/A   Clear
2:55 AM 57.2 °F - 48.2 °F 72% 29.89 in 10.0 mi West 12.7 mph 17.3 mph N/A   Clear
3:15 AM 57.2 °F - 46.4 °F 67% 29.90 in 10.0 mi West 13.8 mph 20.7 mph N/A   Clear
3:35 AM 57.2 °F - 44.6 °F 63% 29.90 in 10.0 mi West 10.4 mph 16.1 mph N/A   Clear
3:55 AM 57.2 °F - 44.6 °F 63% 29.91 in 10.0 mi West 9.2 mph 17.3 mph N/A   Clear
4:15 AM 55.4 °F - 42.8 °F 63% 29.92 in 10.0 mi West 10.4 mph - N/A   Clear
4:35 AM 55.4 °F - 42.8 °F 63% 29.93 in 10.0 mi West 10.4 mph 16.1 mph N/A   Clear
4:55 AM 55.4 °F - 42.8 °F 63% 29.94 in 10.0 mi WSW 8.1 mph - N/A   Clear
5:15 AM 53.6 °F - 41.0 °F 62% 29.94 in 10.0 mi West 9.2 mph - N/A   Clear
5:35 AM 53.6 °F - 39.2 °F 58% 29.94 in 10.0 mi West 9.2 mph - N/A   Clear
5:55 AM 51.8 °F - 39.2 °F 62% 29.95 in 10.0 mi West 9.2 mph - N/A   Clear
6:15 AM 50.0 °F - 37.4 °F 62% 29.95 in 10.0 mi West 8.1 mph - N/A   Clear
6:35 AM 50.0 °F - 37.4 °F 62% 29.97 in 10.0 mi West 8.1 mph - N/A   Clear
6:55 AM 48.2 °F - 37.4 °F 66% 29.98 in 10.0 mi West 8.1 mph - N/A   Clear
7:15 AM 48.2 °F - 35.6 °F 62% 29.98 in 10.0 mi West 8.1 mph - N/A   Clear
7:35 AM 50.0 °F - 33.8 °F 54% 29.98 in 10.0 mi West 8.1 mph - N/A   Clear
7:55 AM 51.8 °F - 33.8 °F 50% 29.99 in 10.0 mi West 8.1 mph - N/A   Clear
8:15 AM 51.8 °F - 30.2 °F 44% 30.01 in 10.0 mi West 8.1 mph - N/A   Clear
8:35 AM 51.8 °F - 30.2 °F 44% 30.01 in 10.0 mi West 6.9 mph - N/A   Clear
8:55 AM 51.8 °F - 32.0 °F 47% 30.02 in 10.0 mi West 9.2 mph - N/A   Clear
9:15 AM 51.8 °F - 30.2 °F 44% 30.03 in 10.0 mi West 9.2 mph - N/A   Clear
9:35 AM 53.6 °F - 30.2 °F 41% 30.03 in 10.0 mi West 10.4 mph - N/A   Clear
9:55 AM 55.4 °F - 28.4 °F 36% 30.04 in 10.0 mi WNW 9.2 mph - N/A   Clear
10:15 AM 55.4 °F - 30.2 °F 38% 30.03 in 10.0 mi West 11.5 mph - N/A   Clear
10:35 AM 55.4 °F - 30.2 °F 38% 30.03 in 10.0 mi West 9.2 mph - N/A   Clear
10:55 AM 55.4 °F - 30.2 °F 38% 30.03 in 10.0 mi West 8.1 mph - N/A   Clear
11:15 AM 57.2 °F - 28.4 °F 33% 30.03 in 10.0 mi NW 5.8 mph - N/A   Clear
11:35 AM 57.2 °F - 28.4 °F 33% 30.03 in 10.0 mi West 6.9 mph - N/A   Clear
11:55 AM 59.0 °F - 28.4 °F 31% 30.03 in 10.0 mi WNW 3.5 mph - N/A   Clear
12:15 PM 59.0 °F - 28.4 °F 31% 30.02 in 10.0 mi WNW 4.6 mph - N/A   Clear
12:35 PM 59.0 °F - 28.4 °F 31% 30.01 in 10.0 mi NW 5.8 mph 9.2 mph N/A   Clear
12:55 PM 60.8 °F - 28.4 °F 29% 30.01 in 10.0 mi West 6.9 mph - N/A   Clear
1:15 PM 60.8 °F - 28.4 °F 29% 30.00 in 10.0 mi NW 8.1 mph - N/A   Clear
1:35 PM 60.8 °F - 30.2 °F 31% 29.99 in 10.0 mi SSW 6.9 mph - N/A   Clear
1:55 PM 60.8 °F - 26.6 °F 27% 29.97 in 10.0 mi WNW 3.5 mph - N/A   Clear
2:15 PM 60.8 °F - 26.6 °F 27% 29.97 in 10.0 mi Calm Calm - N/A   Clear
2:35 PM 60.8 °F - 28.4 °F 29% 29.97 in 10.0 mi SW 3.5 mph - N/A   Clear
2:55 PM 60.8 °F - 30.2 °F 31% 29.95 in 10.0 mi SSW 6.9 mph - N/A   Clear
3:15 PM 59.0 °F - 28.4 °F 31% 29.95 in 10.0 mi South 5.8 mph - N/A   Clear
3:35 PM 60.8 °F - 28.4 °F 29% 29.96 in 10.0 mi WSW 5.8 mph - N/A   Clear
3:55 PM 60.8 °F - 28.4 °F 29% 29.97 in 10.0 mi West 5.8 mph - N/A   Clear
4:15 PM 59.0 °F - 30.2 °F 34% 29.97 in 10.0 mi SW 4.6 mph - N/A   Clear
4:35 PM 59.0 °F - 30.2 °F 34% 29.97 in 10.0 mi SW 4.6 mph - N/A   Clear
4:55 PM 57.2 °F - 33.8 °F 41% 29.96 in 10.0 mi SW 3.5 mph - N/A   Clear
5:15 PM 55.4 °F - 35.6 °F 47% 29.97 in 10.0 mi Calm Calm - N/A   Clear
5:35 PM 55.4 °F - 35.6 °F 47% 29.98 in 10.0 mi Calm Calm - N/A   Clear
5:55 PM 53.6 °F - 35.6 °F 51% 29.99 in 10.0 mi Calm Calm - N/A   Clear
6:15 PM 51.8 °F - 39.2 °F 62% 29.99 in 10.0 mi Calm Calm - N/A   Clear
6:35 PM 51.8 °F - 39.2 °F 62% 29.99 in 10.0 mi Calm Calm - N/A   Clear
6:55 PM 51.8 °F - 37.4 °F 58% 29.99 in 10.0 mi Calm Calm - N/A   Clear
7:15 PM 51.8 °F - 37.4 °F 58% 29.98 in 10.0 mi Calm Calm - N/A   Clear
7:35 PM 51.8 °F - 37.4 °F 58% 29.99 in 10.0 mi Calm Calm - N/A   Clear
7:55 PM 50.0 °F - 39.2 °F 66% 29.98 in 10.0 mi Calm Calm - N/A   Clear
8:15 PM 50.0 °F - 37.4 °F 62% 29.98 in 10.0 mi Calm Calm - N/A   Clear
8:35 PM 50.0 °F - 37.4 °F 62% 29.97 in 10.0 mi Calm Calm - N/A   Clear
8:55 PM 48.2 °F - 37.4 °F 66% 29.95 in 10.0 mi Calm Calm - N/A   Clear
9:15 PM 48.2 °F - 37.4 °F 66% 29.95 in 10.0 mi Calm Calm - N/A   Clear
9:35 PM 48.2 °F - 37.4 °F 66% 29.95 in 10.0 mi Calm Calm - N/A   Clear
9:55 PM 48.2 °F - 37.4 °F 66% 29.96 in 10.0 mi Calm Calm - N/A   Clear
10:15 PM 48.2 °F - 39.2 °F 71% 29.97 in 10.0 mi Calm Calm - N/A   Mostly Cloudy
10:35 PM 48.2 °F - 41.0 °F 76% 30.01 in 10.0 mi Calm Calm - N/A   Overcast
10:55 PM 48.2 °F - 39.2 °F 71% 29.98 in 10.0 mi Calm Calm - N/A   Overcast
11:15 PM 48.2 °F - 39.2 °F 71% 29.96 in 10.0 mi Calm Calm - N/A   Mostly Cloudy
11:35 PM 46.4 °F - 42.8 °F 87% 29.98 in 10.0 mi Calm Calm - N/A   Mostly Cloudy
11:55 PM 46.4 °F 45.2 °F 42.8 °F 87% 29.98 in 10.0 mi South 3.5 mph - N/A   Overcast